Location: *
(48.8780°N, 19.2358°E)
Time: 06:49:05
(UTC+00:00)

Cosmos 2278 Rocket - Pass Details

Date: 18 October 2019
Orbit: 840 x 847 km, 71.0° (Epoch: 16 November)

Event Time Altitude Azimuth Distance (km) Brightness Sun altitude
Rises 19:24:17 0° 253° (WSW) 3,402 5.9 -35.3°
Reaches altitude 10° 19:27:16 10° 268° (W) 2,471 5.2 -35.7°
Maximum altitude 19:31:39 22° 318° (NW) 1,755 4.3 -36.3°
Drops below altitude 10° 19:36:04 10° 10° (N) 2,481 4.8 -36.9°
Enters shadow 19:36:55 - 15° (NNE) 2,725 5.0 -37.1°
